SIA37 KLAX-WSSS

Flight info

Callsign SIA37
Flight time N/A
Altitude 34000
Route SUMMR2 RIZIN DCT MQO DCT AUDIA DCT CUNDU DCT 33N140W 31N150W/N0489F360 29N160W 27N170W 25N180E/N0489F380 23N170E 19N160E/N0486F400 16N150E DCT UNZ DCT JOBSS DCT ISGOG DCT ZAM A341 VSN W461 BRU M646 SAKMA/N0480F430 M646 TOMAN KARTO2A
Aircraft A359/H-SDE2E3GHIJ3J4J5LM1ORWXY/LB1D1

Departure

Time 2026-05-01 12:54
Airport Los Angeles International Airport (KLAX)

Arrival

Time N/A
Airport Singapore Changi Airport (WSSS)
Time Latitude Longitude Altitude Speed Heading
2026-05-01 12:31 33.94518 -118.41143 101 ft 0 kts 83°
2026-05-01 12:43 33.94517 -118.41150 101 ft 3 kts 83°
2026-05-01 12:43 33.94515 -118.41173 100 ft 3 kts 83°
2026-05-01 12:43 33.94513 -118.41195 100 ft 3 kts 83°
2026-05-01 12:44 33.94510 -118.41217 100 ft 3 kts 83°
2026-05-01 12:44 33.94508 -118.41239 101 ft 3 kts 77°
2026-05-01 12:44 33.94493 -118.41276 100 ft 0 kts 44°
2026-05-01 12:47 33.94496 -118.41273 100 ft 2 kts 41°
2026-05-01 12:47 33.94534 -118.41261 101 ft 8 kts
2026-05-01 12:47 33.94587 -118.41268 103 ft 8 kts 352°
2026-05-01 12:47 33.94640 -118.41276 102 ft 8 kts 353°
2026-05-01 12:48 33.94690 -118.41284 104 ft 7 kts 353°
2026-05-01 12:48 33.94736 -118.41290 105 ft 6 kts 355°
2026-05-01 12:48 33.94769 -118.41282 105 ft 5 kts 23°
2026-05-01 12:48 33.94792 -118.41251 106 ft 7 kts 64°
2026-05-01 12:49 33.94804 -118.41181 106 ft 9 kts 84°
2026-05-01 12:49 33.94811 -118.41105 106 ft 9 kts 83°
2026-05-01 12:49 33.94819 -118.41029 107 ft 9 kts 83°
2026-05-01 12:49 33.94828 -118.40939 106 ft 13 kts 83°
2026-05-01 12:50 33.94841 -118.40813 106 ft 16 kts 83°
2026-05-01 12:50 33.94855 -118.40677 106 ft 16 kts 83°
2026-05-01 12:50 33.94869 -118.40543 106 ft 16 kts 83°
2026-05-01 12:50 33.94883 -118.40409 106 ft 16 kts 83°
2026-05-01 12:51 33.94896 -118.40278 106 ft 16 kts 83°
2026-05-01 12:51 33.94910 -118.40147 106 ft 16 kts 84°
2026-05-01 12:51 33.94949 -118.39928 107 ft 10 kts 43°
2026-05-01 12:52 33.94985 -118.39910 111 ft 2 kts 10°
2026-05-01 12:52 33.95005 -118.39911 113 ft 6 kts 350°
2026-05-01 12:52 33.95032 -118.39932 115 ft 4 kts 310°
2026-05-01 12:53 33.95032 -118.40053 114 ft 11 kts 263°
2026-05-01 12:53 33.95015 -118.40220 113 ft 39 kts 263°
2026-05-01 12:53 33.94953 -118.40820 113 ft 105 kts 263°
2026-05-01 12:54 33.94839 -118.41933 113 ft 162 kts 263°
2026-05-01 12:54 33.94532 -118.44938 1338 ft 177 kts 262°
2026-05-01 12:54 33.94387 -118.46383 2127 ft 169 kts 262°
2026-05-01 12:55 33.94088 -118.49320 2623 ft 187 kts 263°
2026-05-01 12:55 33.93916 -118.50950 2735 ft 206 kts 263°
2026-05-01 12:55 33.93754 -118.52734 2911 ft 222 kts 265°
2026-05-01 12:56 33.93651 -118.54651 3153 ft 236 kts 268°
2026-05-01 12:56 33.93588 -118.56678 3423 ft 249 kts 269°
2026-05-01 12:56 33.93492 -118.58811 3717 ft 260 kts 267°
2026-05-01 12:56 33.93368 -118.61000 4162 ft 264 kts 267°
2026-05-01 12:57 33.93237 -118.63212 4665 ft 266 kts 267°
2026-05-01 12:57 33.92936 -118.67701 5641 ft 271 kts 265°
2026-05-01 12:57 33.92752 -118.69962 6167 ft 271 kts 265°
2026-05-01 12:58 33.92569 -118.72223 6670 ft 272 kts 265°
2026-05-01 12:58 33.92389 -118.74473 7128 ft 275 kts 265°
2026-05-01 12:58 33.92207 -118.76780 7591 ft 277 kts 265°
2026-05-01 12:59 33.91840 -118.81439 8546 ft 282 kts 264°
2026-05-01 12:59 33.91726 -118.83844 9027 ft 286 kts 270°
2026-05-01 12:59 33.91846 -118.88642 9998 ft 291 kts 271°
2026-05-01 13:00 33.92003 -118.93682 10500 ft 313 kts 272°
2026-05-01 13:00 33.92083 -118.96348 10704 ft 325 kts 272°
2026-05-01 13:01 33.92550 -119.01934 11079 ft 347 kts 290°
2026-05-01 13:01 33.93528 -119.04628 11290 ft 356 kts 298°
2026-05-01 13:01 33.96190 -119.09861 11660 ft 375 kts 304°
2026-05-01 13:02 33.97655 -119.12500 11931 ft 381 kts 304°
2026-05-01 13:07 34.10263 -119.79017 19243 ft 419 kts 276°
2026-05-01 13:07 34.10466 -119.82533 19522 ft 421 kts 276°
2026-05-01 13:07 34.10668 -119.86057 19784 ft 422 kts 276°
2026-05-01 13:08 34.10870 -119.89597 20072 ft 423 kts 276°
2026-05-01 13:08 34.11071 -119.93143 20341 ft 425 kts 276°
2026-05-01 13:08 34.11273 -119.96712 20624 ft 426 kts 276°
2026-05-01 13:08 34.11474 -120.00290 20897 ft 427 kts 276°
2026-05-01 13:09 34.11674 -120.03873 21182 ft 428 kts 275°
2026-05-01 13:09 34.11874 -120.07467 21455 ft 430 kts 275°
2026-05-01 13:09 34.12072 -120.11032 21718 ft 432 kts 275°
2026-05-01 13:09 34.12272 -120.14660 21994 ft 433 kts 275°
2026-05-01 13:10 34.12471 -120.18293 22266 ft 434 kts 275°
2026-05-01 13:10 34.12669 -120.21935 22534 ft 436 kts 275°
2026-05-01 13:10 34.12868 -120.25599 22804 ft 437 kts 275°
2026-05-01 13:10 34.13065 -120.29269 23063 ft 439 kts 275°
2026-05-01 13:11 34.13263 -120.32952 23333 ft 440 kts 275°
2026-05-01 13:11 34.13460 -120.36648 23585 ft 442 kts 275°
2026-05-01 13:11 34.13656 -120.40357 23806 ft 443 kts 275°
2026-05-01 13:11 34.13852 -120.44071 24047 ft 444 kts 275°
2026-05-01 13:12 34.14047 -120.47796 24285 ft 445 kts 275°
2026-05-01 13:12 34.14241 -120.51525 24534 ft 445 kts 275°
2026-05-01 13:12 34.14434 -120.55258 24777 ft 446 kts 275°
2026-05-01 13:12 34.14624 -120.58952 25019 ft 447 kts 275°
2026-05-01 13:13 34.14816 -120.62708 25246 ft 448 kts 275°
2026-05-01 13:13 34.15007 -120.66462 25498 ft 449 kts 275°
2026-05-01 13:13 34.15197 -120.70223 25740 ft 450 kts 275°
2026-05-01 13:13 34.15387 -120.73998 25986 ft 450 kts 275°
2026-05-01 13:14 34.15575 -120.77776 26235 ft 451 kts 274°
2026-05-01 13:14 34.15763 -120.81561 26490 ft 452 kts 274°
2026-05-01 13:14 34.15950 -120.85354 26747 ft 453 kts 274°
2026-05-01 13:14 34.16136 -120.89153 27001 ft 454 kts 274°
2026-05-01 13:15 34.16322 -120.92967 27243 ft 455 kts 274°
2026-05-01 13:15 34.16507 -120.96783 27498 ft 456 kts 274°
2026-05-01 13:15 34.16691 -121.00610 27746 ft 457 kts 274°
2026-05-01 13:15 34.16874 -121.04446 27987 ft 458 kts 274°
2026-05-01 13:16 34.17056 -121.08294 28239 ft 459 kts 274°
2026-05-01 13:16 34.17238 -121.12154 28461 ft 460 kts 274°
2026-05-01 13:16 34.17417 -121.15974 28676 ft 461 kts 274°
2026-05-01 13:17 34.17955 -121.27626 29309 ft 465 kts 274°
2026-05-01 13:17 34.18132 -121.31527 29495 ft 466 kts 274°
2026-05-01 13:18 34.18484 -121.39338 30088 ft 464 kts 274°
2026-05-01 13:18 34.18657 -121.43218 30380 ft 462 kts 274°
2026-05-01 13:18 34.18828 -121.47090 30629 ft 461 kts 274°
2026-05-01 13:18 34.18998 -121.50960 30880 ft 460 kts 273°
2026-05-01 13:19 34.19167 -121.54815 31131 ft 459 kts 273°
2026-05-01 13:19 34.19333 -121.58658 31388 ft 458 kts 273°
2026-05-01 13:19 34.19659 -121.66280 31875 ft 456 kts 273°
2026-05-01 13:20 34.19821 -121.70103 32116 ft 455 kts 273°
2026-05-01 13:20 34.19982 -121.73913 32344 ft 454 kts 273°
2026-05-01 13:20 34.20141 -121.77718 32588 ft 453 kts 272°
2026-05-01 13:21 34.20454 -121.85313 33039 ft 451 kts 272°
2026-05-01 13:21 34.20609 -121.89097 33272 ft 450 kts 272°
2026-05-01 13:21 34.20762 -121.92875 33508 ft 449 kts 272°
2026-05-01 13:21 34.20914 -121.96648 33729 ft 449 kts 272°
2026-05-01 13:22 34.21064 -122.00404 33952 ft 448 kts 272°
2026-05-01 13:22 34.21213 -122.04171 34057 ft 450 kts 272°
2026-05-01 13:22 34.21510 -122.11778 34062 ft 454 kts 272°
2026-05-01 13:23 34.21802 -122.19352 34063 ft 454 kts 272°
2026-05-01 13:23 34.22091 -122.26971 34069 ft 454 kts 272°
2026-05-01 13:24 34.22375 -122.34589 34072 ft 454 kts 272°
2026-05-01 13:25 34.22793 -122.46030 34075 ft 454 kts 272°
2026-05-01 13:25 34.23064 -122.53618 34076 ft 454 kts 272°
2026-05-01 13:26 34.23332 -122.61248 34076 ft 454 kts 272°
2026-05-01 13:26 34.23595 -122.68878 34080 ft 455 kts 272°
2026-05-01 13:27 34.23853 -122.76512 34083 ft 455 kts 271°
2026-05-01 13:27 34.24233 -122.87974 34086 ft 455 kts 271°
2026-05-01 13:28 34.24601 -122.99446 34087 ft 455 kts 271°
2026-05-01 13:29 34.24632 -123.14691 34091 ft 455 kts 266°
2026-05-01 13:31 34.23482 -123.37588 34100 ft 455 kts 266°
2026-05-01 13:32 34.22494 -123.56687 34107 ft 455 kts 266°
2026-05-01 13:33 34.21482 -123.75724 34113 ft 455 kts 266°
2026-05-01 13:34 34.20647 -123.91010 34111 ft 456 kts 266°
2026-05-01 13:35 34.20081 -124.01184 34120 ft 456 kts 266°
2026-05-01 13:36 34.19434 -124.12643 34122 ft 456 kts 266°
2026-05-01 13:36 34.18775 -124.24111 34124 ft 456 kts 266°
2026-05-01 13:37 34.18330 -124.31752 34121 ft 456 kts 265°
2026-05-01 13:37 34.17880 -124.39391 34122 ft 456 kts 265°
2026-05-01 13:38 34.17196 -124.50852 34131 ft 456 kts 265°
2026-05-01 13:39 34.16737 -124.58448 34138 ft 456 kts 265°
2026-05-01 13:39 34.16271 -124.66087 34141 ft 456 kts 265°
2026-05-01 13:40 34.15799 -124.73733 34141 ft 456 kts 265°
2026-05-01 13:40 34.15323 -124.81371 34135 ft 456 kts 265°
2026-05-01 13:41 34.14841 -124.89023 34142 ft 456 kts 265°
2026-05-01 13:41 34.14358 -124.96620 34144 ft 456 kts 265°
2026-05-01 13:42 34.13868 -125.04262 34147 ft 456 kts 265°
2026-05-01 13:42 34.13373 -125.11904 34143 ft 456 kts 265°
2026-05-01 13:43 34.12872 -125.19547 34148 ft 456 kts 265°
2026-05-01 13:43 34.12368 -125.27178 34148 ft 456 kts 265°
2026-05-01 13:44 34.11861 -125.34779 34157 ft 456 kts 265°
2026-05-01 13:44 34.11346 -125.42424 34157 ft 457 kts 265°
2026-05-01 13:45 34.10828 -125.50058 34161 ft 457 kts 265°
2026-05-01 13:45 34.10303 -125.57708 34163 ft 457 kts 264°
2026-05-01 13:46 34.09774 -125.65349 34163 ft 457 kts 264°
2026-05-01 13:46 34.09244 -125.72939 34162 ft 457 kts 264°
2026-05-01 13:47 34.08706 -125.80573 34164 ft 457 kts 264°
2026-05-01 13:47 34.08164 -125.88207 34168 ft 457 kts 264°
2026-05-01 13:48 34.07616 -125.95847 34172 ft 457 kts 264°
2026-05-01 13:48 34.07102 -126.02948 34174 ft 457 kts 264°
2026-05-01 13:49 34.06976 -126.04676 34174 ft 457 kts 264°
2026-05-01 13:50 34.06419 -126.12312 34176 ft 457 kts 264°
2026-05-01 13:50 34.05856 -126.19942 34179 ft 457 kts 264°
2026-05-01 13:51 34.05289 -126.27580 34183 ft 457 kts 264°
2026-05-01 13:51 34.04716 -126.35216 34181 ft 457 kts 264°
2026-05-01 13:52 34.04139 -126.42858 34185 ft 457 kts 264°
2026-05-01 13:52 34.03561 -126.50432 34185 ft 457 kts 264°
2026-05-01 13:53 34.02974 -126.58072 34189 ft 457 kts 264°
2026-05-01 13:53 34.02086 -126.69516 34193 ft 457 kts 264°
2026-05-01 13:54 34.01492 -126.77097 34195 ft 457 kts 264°
2026-05-01 13:54 34.00888 -126.84732 34197 ft 457 kts 264°
2026-05-01 13:55 34.00280 -126.92363 34199 ft 457 kts 264°
2026-05-01 13:55 33.99668 -126.99986 34201 ft 457 kts 263°
2026-05-01 13:56 33.99051 -127.07617 34201 ft 457 kts 263°
2026-05-01 13:56 33.98428 -127.15249 34203 ft 457 kts 263°
2026-05-01 13:57 33.97805 -127.22835 34208 ft 457 kts 263°
2026-05-01 13:57 33.97186 -127.30315 34208 ft 458 kts 263°
2026-05-01 13:58 33.96549 -127.37943 34211 ft 458 kts 263°
2026-05-01 13:58 33.95908 -127.45576 34212 ft 458 kts 263°
2026-05-01 13:59 33.95261 -127.53213 34214 ft 458 kts 263°
2026-05-01 13:59 33.94610 -127.60842 34215 ft 458 kts 263°
2026-05-01 14:00 33.93955 -127.68472 34213 ft 458 kts 263°
2026-05-01 14:00 33.93293 -127.76108 34216 ft 458 kts 263°
2026-05-01 14:01 33.92632 -127.83693 34218 ft 458 kts 263°
2026-05-01 14:01 33.91961 -127.91327 34220 ft 458 kts 263°
2026-05-01 14:02 33.91286 -127.98959 34222 ft 459 kts 263°
2026-05-01 14:02 33.90605 -128.06604 34224 ft 459 kts 263°
2026-05-01 14:03 33.89919 -128.14253 34226 ft 459 kts 263°
2026-05-01 14:03 33.89227 -128.21904 34227 ft 459 kts 263°
2026-05-01 14:04 33.88532 -128.29544 34230 ft 460 kts 263°
2026-05-01 14:04 33.87951 -128.35897 34233 ft 459 kts 263°
2026-05-01 14:05 33.87132 -128.44777 34234 ft 459 kts 263°
2026-05-01 14:05 33.86422 -128.52419 34235 ft 460 kts 263°
2026-05-01 14:06 33.85707 -128.60069 34236 ft 460 kts 263°
2026-05-01 14:06 33.84987 -128.67714 34237 ft 460 kts 263°
2026-05-01 14:07 33.84261 -128.75367 34236 ft 460 kts 263°
2026-05-01 14:08 33.83164 -128.86850 34242 ft 461 kts 263°
2026-05-01 14:08 33.82426 -128.94510 34244 ft 461 kts 262°
2026-05-01 14:09 33.81682 -129.02177 34243 ft 461 kts 262°
2026-05-01 14:09 33.80933 -129.09848 34249 ft 461 kts 262°
2026-05-01 14:10 33.80185 -129.17457 34249 ft 461 kts 262°
2026-05-01 14:10 33.79428 -129.25110 34253 ft 461 kts 262°
2026-05-01 14:11 33.78666 -129.32769 34256 ft 461 kts 262°
2026-05-01 14:11 33.77514 -129.44251 34252 ft 461 kts 262°
2026-05-01 14:12 33.76740 -129.51903 34256 ft 461 kts 262°
2026-05-01 14:12 33.75961 -129.59556 34258 ft 461 kts 262°
2026-05-01 14:13 33.75311 -129.65912 34257 ft 460 kts 262°
2026-05-01 14:13 33.74397 -129.74781 34264 ft 460 kts 262°
2026-05-01 14:14 33.73607 -129.82409 34263 ft 460 kts 262°
2026-05-01 14:14 33.72812 -129.90032 34261 ft 459 kts 262°
2026-05-01 14:15 33.72013 -129.97643 34265 ft 459 kts 262°
2026-05-01 14:15 33.71209 -130.05257 34269 ft 459 kts 262°
2026-05-01 14:16 33.70407 -130.12806 34267 ft 459 kts 262°
2026-05-01 14:16 33.69596 -130.20404 34277 ft 458 kts 262°
2026-05-01 14:17 33.68779 -130.28006 34274 ft 458 kts 262°
2026-05-01 14:17 33.67959 -130.35590 34276 ft 458 kts 262°
2026-05-01 14:18 33.67135 -130.43174 34277 ft 458 kts 262°
2026-05-01 14:18 33.66445 -130.49481 34279 ft 457 kts 262°
2026-05-01 14:19 33.65478 -130.58276 34281 ft 457 kts 262°
2026-05-01 14:19 33.64641 -130.65847 34286 ft 457 kts 262°
2026-05-01 14:20 33.63376 -130.77200 34285 ft 457 kts 262°
2026-05-01 14:21 33.62533 -130.84719 34280 ft 457 kts 262°
2026-05-01 14:21 33.61681 -130.92270 34282 ft 457 kts 262°
2026-05-01 14:22 33.60394 -131.03596 34288 ft 457 kts 261°
2026-05-01 14:22 33.59677 -131.09873 34289 ft 456 kts 261°
2026-05-01 14:23 33.58809 -131.17421 34293 ft 456 kts 261°
2026-05-01 14:23 33.57939 -131.24952 34288 ft 456 kts 261°
2026-05-01 14:24 33.57064 -131.32487 34290 ft 456 kts 261°
2026-05-01 14:24 33.56183 -131.40030 34292 ft 456 kts 261°
2026-05-01 14:25 33.55299 -131.47555 34289 ft 456 kts 261°
2026-05-01 14:25 33.54411 -131.55079 34295 ft 456 kts 261°
2026-05-01 14:26 33.53076 -131.66312 34298 ft 456 kts 261°
2026-05-01 14:27 33.52176 -131.73835 34299 ft 455 kts 261°
2026-05-01 14:27 33.51272 -131.81350 34299 ft 455 kts 261°
2026-05-01 14:28 33.49909 -131.92611 34299 ft 455 kts 261°
2026-05-01 14:28 33.48994 -132.00119 34296 ft 455 kts 261°
2026-05-01 14:29 33.48074 -132.07634 34302 ft 455 kts 261°
2026-05-01 14:30 33.46227 -132.22598 34305 ft 456 kts 261°
2026-05-01 14:31 33.44826 -132.33857 34298 ft 456 kts 261°
2026-05-01 14:31 33.43885 -132.41370 34303 ft 456 kts 261°
2026-05-01 14:32 33.42939 -132.48877 34302 ft 456 kts 261°
2026-05-01 14:32 33.41988 -132.56392 34306 ft 456 kts 261°
2026-05-01 14:33 33.41038 -132.63865 34304 ft 456 kts 261°
2026-05-01 14:33 33.40072 -132.71421 34306 ft 456 kts 261°
2026-05-01 14:34 33.39115 -132.78876 34313 ft 456 kts 261°
2026-05-01 14:34 33.38145 -132.86385 34308 ft 456 kts 260°
2026-05-01 14:35 33.37171 -132.93898 34316 ft 456 kts 260°
2026-05-01 14:35 33.36193 -133.01400 34311 ft 456 kts 260°
2026-05-01 14:36 33.35212 -133.08895 34317 ft 456 kts 260°
2026-05-01 14:36 33.34390 -133.15143 34312 ft 456 kts 260°
2026-05-01 14:37 33.33238 -133.23861 34319 ft 456 kts 260°
2026-05-01 14:37 33.32241 -133.31362 34315 ft 457 kts 260°
2026-05-01 14:38 33.31240 -133.38862 34319 ft 457 kts 260°
2026-05-01 14:38 33.30234 -133.46361 34317 ft 457 kts 260°
2026-05-01 14:39 33.29224 -133.53859 34318 ft 457 kts 260°
2026-05-01 14:39 33.28263 -133.61311 34316 ft 457 kts 263°
2026-05-01 14:40 33.27941 -133.68913 34321 ft 457 kts 267°
2026-05-01 14:40 33.27785 -133.76527 34330 ft 458 kts 268°
2026-05-01 14:41 33.27654 -133.84086 34330 ft 457 kts 267°
2026-05-01 14:41 33.27508 -133.91690 34329 ft 457 kts 267°
2026-05-01 14:42 33.27350 -133.99292 34327 ft 457 kts 267°
2026-05-01 14:42 33.27184 -134.06902 34321 ft 457 kts 267°
2026-05-01 14:43 33.27014 -134.14499 34334 ft 457 kts 267°
2026-05-01 14:43 33.26840 -134.22102 34326 ft 457 kts 267°
2026-05-01 14:44 33.26661 -134.29704 34332 ft 457 kts 267°
2026-05-01 14:44 33.26385 -134.41049 34333 ft 457 kts 267°
2026-05-01 14:45 33.26098 -134.52445 34337 ft 457 kts 267°
2026-05-01 14:46 33.25901 -134.60049 34333 ft 457 kts 267°
2026-05-01 14:46 33.25596 -134.71452 34331 ft 457 kts 267°
2026-05-01 14:47 33.25387 -134.79056 34331 ft 458 kts 267°
2026-05-01 14:48 33.25066 -134.90408 34327 ft 458 kts 267°
2026-05-01 14:48 33.24734 -135.01809 34336 ft 458 kts 267°
2026-05-01 14:49 33.24274 -135.17016 34334 ft 458 kts 266°
2026-05-01 14:50 33.23796 -135.32221 34341 ft 458 kts 266°
2026-05-01 14:51 33.23425 -135.43629 34346 ft 458 kts 266°
2026-05-01 14:52 33.23045 -135.55001 34344 ft 458 kts 266°
2026-05-01 14:53 33.22653 -135.66410 34347 ft 458 kts 266°
2026-05-01 14:53 33.22386 -135.74016 34337 ft 458 kts 266°
2026-05-01 14:54 33.22114 -135.81624 34345 ft 458 kts 266°
2026-05-01 14:54 33.21838 -135.89225 34349 ft 458 kts 266°
2026-05-01 14:55 33.21557 -135.96831 34342 ft 458 kts 266°
2026-05-01 14:55 33.21273 -136.04394 34341 ft 458 kts 266°
2026-05-01 14:56 33.20983 -136.11998 34352 ft 458 kts 266°
2026-05-01 14:56 33.20688 -136.19595 34344 ft 458 kts 266°
2026-05-01 14:57 33.20390 -136.27182 34349 ft 458 kts 266°
2026-05-01 14:57 33.19933 -136.38567 34360 ft 458 kts 266°
2026-05-01 14:58 33.19622 -136.46159 34353 ft 458 kts 266°
2026-05-01 14:58 33.19307 -136.53747 34347 ft 457 kts 266°
2026-05-01 14:59 33.18989 -136.61290 34353 ft 458 kts 266°
2026-05-01 14:59 33.18665 -136.68881 34360 ft 458 kts 266°
2026-05-01 15:00 33.18170 -136.80273 34359 ft 458 kts 266°
2026-05-01 15:01 33.17836 -136.87827 34354 ft 458 kts 266°
2026-05-01 15:01 33.17495 -136.95419 34350 ft 458 kts 266°
2026-05-01 15:02 33.17150 -137.03011 34355 ft 458 kts 266°
2026-05-01 15:02 33.16799 -137.10612 34352 ft 459 kts 266°
2026-05-01 15:03 33.16444 -137.18234 34363 ft 459 kts 266°
2026-05-01 15:03 33.16084 -137.25842 34355 ft 459 kts 266°
2026-05-01 15:04 33.15719 -137.33458 34364 ft 460 kts 266°
2026-05-01 15:04 33.15349 -137.41083 34357 ft 461 kts 266°
2026-05-01 15:05 33.14973 -137.48722 34365 ft 461 kts 266°
2026-05-01 15:05 33.14592 -137.56371 34356 ft 462 kts 266°
2026-05-01 15:06 33.14209 -137.63983 34353 ft 463 kts 266°
2026-05-01 15:06 33.13818 -137.71652 34365 ft 463 kts 266°
2026-05-01 15:07 33.13421 -137.79337 34360 ft 465 kts 266°
2026-05-01 15:07 33.13018 -137.87048 34354 ft 466 kts 266°
2026-05-01 15:08 33.12610 -137.94783 34361 ft 468 kts 266°
2026-05-01 15:08 33.12195 -138.02541 34353 ft 469 kts 266°
2026-05-01 15:09 33.11775 -138.10308 34357 ft 469 kts 266°
2026-05-01 15:09 33.11352 -138.18036 34358 ft 470 kts 266°
2026-05-01 15:10 33.10921 -138.25824 34352 ft 471 kts 266°
2026-05-01 15:10 33.10262 -138.37561 34365 ft 473 kts 266°
2026-05-01 15:11 33.09590 -138.49334 34362 ft 475 kts 266°
2026-05-01 15:12 33.09135 -138.57196 34369 ft 476 kts 266°
2026-05-01 15:12 33.08520 -138.67692 34368 ft 477 kts 266°
2026-05-01 15:14 33.07340 -138.87415 34370 ft 479 kts 266°
2026-05-01 15:14 33.06613 -138.99309 34363 ft 479 kts 266°
2026-05-01 15:15 33.05628 -139.15142 34369 ft 481 kts 267°
2026-05-01 15:16 33.04617 -139.31069 34376 ft 482 kts 267°
2026-05-01 15:18 33.03323 -139.50991 34372 ft 482 kts 267°
2026-05-01 15:19 33.02264 -139.66931 34373 ft 482 kts 267°
2026-05-01 15:19 33.01460 -139.78846 34375 ft 482 kts 267°
2026-05-01 15:20 33.00644 -139.90758 34371 ft 483 kts 267°
2026-05-01 15:21 33.00071 -139.98734 34372 ft 484 kts 264°
2026-05-01 15:21 32.98972 -140.06667 34371 ft 485 kts 261°
2026-05-01 15:22 32.97103 -140.18514 34375 ft 485 kts 261°
2026-05-01 15:22 32.95837 -140.26417 34377 ft 486 kts 261°
2026-05-01 15:23 32.94573 -140.34326 34375 ft 487 kts 261°
2026-05-01 15:23 32.93312 -140.42207 34373 ft 487 kts 261°
2026-05-01 15:24 32.92037 -140.50148 34375 ft 488 kts 261°
2026-05-01 15:24 32.90756 -140.58094 34374 ft 489 kts 261°
2026-05-01 15:25 32.89468 -140.66044 34375 ft 489 kts 261°
2026-05-01 15:25 32.88181 -140.73959 34373 ft 491 kts 261°
2026-05-01 15:26 32.86878 -140.81935 34372 ft 492 kts 261°
2026-05-01 15:26 32.85567 -140.89930 34375 ft 492 kts 261°
2026-05-01 15:27 32.84249 -140.97932 34376 ft 493 kts 261°
2026-05-01 15:28 32.82257 -141.09963 34370 ft 494 kts 261°
2026-05-01 15:28 32.80922 -141.17989 34369 ft 495 kts 261°
2026-05-01 15:29 32.78911 -141.30007 34370 ft 497 kts 261°
2026-05-01 15:30 32.76192 -141.46144 34373 ft 498 kts 261°
2026-05-01 15:31 32.72050 -141.70478 34371 ft 502 kts 261°
2026-05-01 15:32 32.69258 -141.86711 34370 ft 504 kts 261°
2026-05-01 15:34 32.64996 -142.11249 34373 ft 508 kts 261°